Time,TemperatureF,DewpointF,PressureIn,WindDirection,WindDirectionDegrees,WindSpeedMPH,WindSpeedGustMPH,Humidity,HourlyPrecipIn,Conditions,Clouds,dailyrainin,SoftwareType,DateUTC
2013-01-26 00:00:00,14.4,7.0,30.36,NW,321,3.0,5.0,72,0.00,,,0.00,Wunderground v.1.15,2013-01-26 06:00:00,
2013-01-26 00:05:00,14.3,6.9,30.36,NNW,339,3.0,5.0,72,0.00,,,0.00,Wunderground v.1.15,2013-01-26 06:05:00,
2013-01-26 00:15:00,14.1,6.7,30.36,NNW,327,2.0,3.0,72,0.00,,,0.00,Wunderground v.1.15,2013-01-26 06:15:00,
2013-01-26 00:20:00,13.9,6.8,30.36,NNW,333,3.0,6.0,73,0.00,,,0.00,Wunderground v.1.15,2013-01-26 06:20:00,
2013-01-26 00:30:00,13.7,6.6,30.36,NW,326,3.0,3.0,73,0.00,,,0.00,Wunderground v.1.15,2013-01-26 06:30:00,
2013-01-26 00:35:00,13.7,6.6,30.36,NW,321,3.0,3.0,73,0.00,,,0.00,Wunderground v.1.15,2013-01-26 06:35:00,
2013-01-26 00:40:00,13.6,6.5,30.36,NNW,327,3.0,3.0,73,0.00,,,0.00,Wunderground v.1.15,2013-01-26 06:40:00,
2013-01-26 00:45:00,13.5,6.5,30.37,NNW,334,3.0,3.0,73,0.00,,,0.00,Wunderground v.1.15,2013-01-26 06:45:00,
2013-01-26 00:55:00,13.2,6.5,30.37,NW,326,3.0,3.0,74,0.00,,,0.00,Wunderground v.1.15,2013-01-26 06:55:00,
2013-01-26 01:00:00,13.1,6.4,30.37,NNW,342,3.0,3.0,74,0.00,,,0.00,Wunderground v.1.15,2013-01-26 07:00:00,
2013-01-26 01:05:00,13.1,6.4,30.36,NNW,342,3.0,3.0,74,0.00,,,0.00,Wunderground v.1.15,2013-01-26 07:05:00,
2013-01-26 01:15:00,12.9,6.2,30.36,NNW,345,3.0,4.0,74,0.00,,,0.00,Wunderground v.1.15,2013-01-26 07:15:00,
2013-01-26 01:20:00,12.8,6.4,30.36,NNW,338,2.0,5.0,75,0.00,,,0.00,Wunderground v.1.15,2013-01-26 07:20:00,
2013-01-26 01:25:00,12.6,6.2,30.37,NNW,327,2.0,5.0,75,0.00,,,0.00,Wunderground v.1.15,2013-01-26 07:25:00,
2013-01-26 01:35:00,12.3,5.9,30.36,NNW,348,1.0,3.0,75,0.00,,,0.00,Wunderground v.1.15,2013-01-26 07:35:00,
2013-01-26 01:40:00,12.2,5.8,30.37,NNW,330,1.0,1.0,75,0.00,,,0.00,Wunderground v.1.15,2013-01-26 07:40:00,
2013-01-26 01:45:00,12.1,6.0,30.38,NNW,334,2.0,2.0,76,0.00,,,0.00,Wunderground v.1.15,2013-01-26 07:45:00,
2013-01-26 01:50:00,11.9,5.8,30.38,NNW,346,1.0,1.0,76,0.00,,,0.00,Wunderground v.1.15,2013-01-26 07:50:00,
2013-01-26 02:00:00,11.8,5.7,30.38,NW,317,2.0,2.0,76,0.00,,,0.00,Wunderground v.1.15,2013-01-26 08:00:00,
2013-01-26 02:05:00,11.7,5.6,30.39,NW,325,2.0,2.0,76,0.00,,,0.00,Wunderground v.1.15,2013-01-26 08:05:00,
2013-01-26 02:15:00,11.4,5.6,30.40,NW,318,1.0,1.0,77,0.00,,,0.00,Wunderground v.1.15,2013-01-26 08:15:00,
2013-01-26 02:20:00,11.4,5.6,30.40,NNW,329,1.0,1.0,77,0.00,,,0.00,Wunderground v.1.15,2013-01-26 08:20:00,
2013-01-26 02:30:00,11.2,5.4,30.40,NNW,329,0.0,0.0,77,0.00,,,0.00,Wunderground v.1.15,2013-01-26 08:30:00,
2013-01-26 02:35:00,11.1,5.3,30.40,NNW,329,0.0,0.0,77,0.00,,,0.00,Wunderground v.1.15,2013-01-26 08:35:00,
2013-01-26 02:40:00,11.0,5.2,30.40,NNW,329,0.0,0.0,77,0.00,,,0.00,Wunderground v.1.15,2013-01-26 08:40:00,
2013-01-26 02:45:00,10.9,5.1,30.40,NNW,329,0.0,2.0,77,0.00,,,0.00,Wunderground v.1.15,2013-01-26 08:45:00,
2013-01-26 02:50:00,10.8,5.0,30.40,NNW,329,0.0,1.0,77,0.00,,,0.00,Wunderground v.1.15,2013-01-26 08:50:00,
2013-01-26 03:00:00,10.5,4.7,30.40,NNW,329,0.0,0.0,77,0.00,,,0.00,Wunderground v.1.15,2013-01-26 09:00:00,
2013-01-26 03:05:00,10.2,4.4,30.40,NNW,329,0.0,0.0,77,0.00,,,0.00,Wunderground v.1.15,2013-01-26 09:05:00,
2013-01-26 03:15:00,9.9,4.4,30.41,NNW,329,0.0,0.0,78,0.00,,,0.00,Wunderground v.1.15,2013-01-26 09:15:00,
2013-01-26 03:20:00,9.9,4.4,30.41,NNW,329,0.0,1.0,78,0.00,,,0.00,Wunderground v.1.15,2013-01-26 09:20:00,
2013-01-26 03:25:00,9.9,4.7,30.41,NNW,329,0.0,1.0,79,0.00,,,0.00,Wunderground v.1.15,2013-01-26 09:25:00,
2013-01-26 03:35:00,9.8,4.3,30.41,NNW,329,0.0,0.0,78,0.00,,,0.00,Wunderground v.1.15,2013-01-26 09:35:00,
2013-01-26 03:40:00,9.6,4.4,30.41,NNW,329,0.0,0.0,79,0.00,,,0.00,Wunderground v.1.15,2013-01-26 09:40:00,
2013-01-26 03:45:00,9.4,4.2,30.42,NNW,329,0.0,0.0,79,0.00,,,0.00,Wunderground v.1.15,2013-01-26 09:45:00,
2013-01-26 03:50:00,9.1,3.9,30.42,NNW,329,0.0,0.0,79,0.00,,,0.00,Wunderground v.1.15,2013-01-26 09:50:00,
2013-01-26 03:55:00,8.9,3.7,30.42,NNW,329,0.0,0.0,79,0.00,,,0.00,Wunderground v.1.15,2013-01-26 09:55:00,
2013-01-26 04:05:00,8.7,3.8,30.42,NNW,329,0.0,0.0,80,0.00,,,0.00,Wunderground v.1.15,2013-01-26 10:05:00,
2013-01-26 04:15:00,8.7,3.8,30.42,NNW,329,0.0,0.0,80,0.00,,,0.00,Wunderground v.1.15,2013-01-26 10:15:00,
2013-01-26 04:20:00,8.6,3.7,30.42,NNW,329,0.0,0.0,80,0.00,,,0.00,Wunderground v.1.15,2013-01-26 10:20:00,
2013-01-26 04:25:00,8.5,3.6,30.43,NNW,329,0.0,0.0,80,0.00,,,0.00,Wunderground v.1.15,2013-01-26 10:25:00,
2013-01-26 04:30:00,8.5,3.6,30.42,NNW,329,0.0,0.0,80,0.00,,,0.00,Wunderground v.1.15,2013-01-26 10:30:00,
2013-01-26 04:35:00,8.5,3.6,30.43,NNW,329,0.0,0.0,80,0.00,,,0.00,Wunderground v.1.15,2013-01-26 10:35:00,
2013-01-26 04:40:00,8.4,3.8,30.43,NNW,329,0.0,0.0,81,0.00,,,0.00,Wunderground v.1.15,2013-01-26 10:40:00,
2013-01-26 04:45:00,8.2,3.6,30.44,NNW,329,0.0,0.0,81,0.00,,,0.00,Wunderground v.1.15,2013-01-26 10:45:00,
2013-01-26 04:55:00,7.8,3.2,30.44,NNW,329,0.0,0.0,81,0.00,,,0.00,Wunderground v.1.15,2013-01-26 10:55:00,
2013-01-26 05:00:00,7.6,3.0,30.44,NNW,329,0.0,0.0,81,0.00,,,0.00,Wunderground v.1.15,2013-01-26 11:00:00,
2013-01-26 05:05:00,7.5,2.9,30.44,NNW,329,0.0,0.0,81,0.00,,,0.00,Wunderground v.1.15,2013-01-26 11:05:00,
2013-01-26 05:15:00,7.3,3.0,30.44,NNW,329,0.0,0.0,82,0.00,,,0.00,Wunderground v.1.15,2013-01-26 11:15:00,
2013-01-26 05:20:00,7.2,2.9,30.45,NNW,329,0.0,0.0,82,0.00,,,0.00,Wunderground v.1.15,2013-01-26 11:20:00,
2013-01-26 05:30:00,7.0,2.7,30.45,NNW,329,0.0,0.0,82,0.00,,,0.00,Wunderground v.1.15,2013-01-26 11:30:00,
2013-01-26 05:35:00,6.9,2.6,30.45,NNW,329,0.0,0.0,82,0.00,,,0.00,Wunderground v.1.15,2013-01-26 11:35:00,
2013-01-26 05:40:00,6.9,2.6,30.46,NNW,329,0.0,0.0,82,0.00,,,0.00,Wunderground v.1.15,2013-01-26 11:40:00,
2013-01-26 05:45:00,6.9,2.6,30.45,NNW,329,0.0,0.0,82,0.00,,,0.00,Wunderground v.1.15,2013-01-26 11:45:00,
2013-01-26 05:55:00,6.7,2.6,30.46,NNW,329,0.0,0.0,83,0.00,,,0.00,Wunderground v.1.15,2013-01-26 11:55:00,
2013-01-26 06:00:00,6.7,2.6,30.46,NNW,329,0.0,0.0,83,0.00,,,0.00,Wunderground v.1.15,2013-01-26 12:00:00,
2013-01-26 06:05:00,6.5,2.4,30.47,NNW,329,0.0,0.0,83,0.00,,,0.00,Wunderground v.1.15,2013-01-26 12:05:00,
2013-01-26 06:15:00,6.3,2.5,30.47,NNW,329,0.0,0.0,84,0.00,,,0.00,Wunderground v.1.15,2013-01-26 12:15:00,
2013-01-26 06:20:00,6.1,2.3,30.47,NNW,329,0.0,0.0,84,0.00,,,0.00,Wunderground v.1.15,2013-01-26 12:20:00,
2013-01-26 06:25:00,6.0,2.2,30.47,NNW,329,0.0,0.0,84,0.00,,,0.00,Wunderground v.1.15,2013-01-26 12:25:00,
2013-01-26 06:30:00,5.8,2.0,30.47,NNW,329,0.0,0.0,84,0.00,,,0.00,Wunderground v.1.15,2013-01-26 12:30:00,
2013-01-26 06:40:00,5.7,1.9,30.47,NNW,329,0.0,0.0,84,0.00,,,0.00,Wunderground v.1.15,2013-01-26 12:40:00,
2013-01-26 06:45:00,5.6,1.8,30.47,NNW,329,0.0,0.0,84,0.00,,,0.00,Wunderground v.1.15,2013-01-26 12:45:00,
2013-01-26 06:50:00,5.6,1.8,30.47,NNW,329,0.0,0.0,84,0.00,,,0.00,Wunderground v.1.15,2013-01-26 12:50:00,
2013-01-26 07:00:00,5.5,2.0,30.48,NNW,329,0.0,0.0,85,0.00,,,0.00,Wunderground v.1.15,2013-01-26 13:00:00,
2013-01-26 07:05:00,5.4,1.9,30.48,NNW,329,0.0,0.0,85,0.00,,,0.00,Wunderground v.1.15,2013-01-26 13:05:00,
2013-01-26 07:15:00,5.3,1.8,30.48,NNW,329,0.0,0.0,85,0.00,,,0.00,Wunderground v.1.15,2013-01-26 13:15:00,
2013-01-26 07:20:00,5.2,1.7,30.48,NNW,329,0.0,0.0,85,0.00,,,0.00,Wunderground v.1.15,2013-01-26 13:20:00,
2013-01-26 07:25:00,5.3,1.8,30.48,NNW,329,0.0,0.0,85,0.00,,,0.00,Wunderground v.1.15,2013-01-26 13:25:00,
2013-01-26 07:30:00,5.3,1.8,30.49,NNW,329,0.0,0.0,85,0.00,,,0.00,Wunderground v.1.15,2013-01-26 13:30:00,
2013-01-26 07:40:00,5.3,1.8,30.49,NNW,329,0.0,0.0,85,0.00,,,0.00,Wunderground v.1.15,2013-01-26 13:40:00,
2013-01-26 07:45:00,5.4,1.9,30.49,NNW,329,0.0,0.0,85,0.00,,,0.00,Wunderground v.1.15,2013-01-26 13:45:00,
2013-01-26 07:50:00,5.5,2.0,30.50,NNW,329,0.0,0.0,85,0.00,,,0.00,Wunderground v.1.15,2013-01-26 13:50:00,
2013-01-26 07:55:00,5.8,2.5,30.50,NNW,329,0.0,0.0,86,0.00,,,0.00,Wunderground v.1.15,2013-01-26 13:55:00,
2013-01-26 08:05:00,6.6,3.3,30.50,NNW,329,0.0,0.0,86,0.00,,,0.00,Wunderground v.1.15,2013-01-26 14:05:00,
2013-01-26 08:15:00,7.7,4.4,30.51,NNW,329,0.0,1.0,86,0.00,,,0.00,Wunderground v.1.15,2013-01-26 14:15:00,
2013-01-26 08:20:00,8.3,4.7,30.51,NNW,329,0.0,0.0,85,0.00,,,0.00,Wunderground v.1.15,2013-01-26 14:20:00,
2013-01-26 08:25:00,8.9,5.1,30.51,NNW,329,0.0,0.0,84,0.00,,,0.00,Wunderground v.1.15,2013-01-26 14:25:00,
2013-01-26 08:30:00,9.5,5.4,30.51,NNW,329,1.0,1.0,83,0.00,,,0.00,Wunderground v.1.15,2013-01-26 14:30:00,
2013-01-26 08:40:00,10.3,5.6,30.51,NNW,329,1.0,1.0,81,0.00,,,0.00,Wunderground v.1.15,2013-01-26 14:40:00,
2013-01-26 08:45:00,10.7,6.0,30.51,NNW,329,1.0,2.0,81,0.00,,,0.00,Wunderground v.1.15,2013-01-26 14:45:00,
2013-01-26 08:50:00,11.1,5.9,30.51,NNW,339,1.0,2.0,79,0.00,,,0.00,Wunderground v.1.15,2013-01-26 14:50:00,
2013-01-26 08:55:00,11.5,6.2,30.51,NNW,336,2.0,3.0,79,0.00,,,0.00,Wunderground v.1.15,2013-01-26 14:55:00,
2013-01-26 09:05:00,12.2,6.4,30.51,NNW,340,1.0,3.0,77,0.00,,,0.00,Wunderground v.1.15,2013-01-26 15:05:00,
2013-01-26 09:15:00,13.1,7.2,30.51,NNW,330,1.0,3.0,77,0.00,,,0.00,Wunderground v.1.15,2013-01-26 15:15:00,
2013-01-26 09:25:00,14.2,7.7,30.51,NNE,13,2.0,2.0,75,0.00,,,0.00,Wunderground v.1.15,2013-01-26 15:25:00,
2013-01-26 09:30:00,14.4,7.6,30.52,ENE,60,2.0,2.0,74,0.00,,,0.00,Wunderground v.1.15,2013-01-26 15:30:00,
2013-01-26 09:35:00,15.0,7.9,30.52,ENE,60,1.0,2.0,73,0.00,,,0.00,Wunderground v.1.15,2013-01-26 15:35:00,
2013-01-26 09:45:00,15.9,8.8,30.52,East,87,1.0,2.0,73,0.00,,,0.00,Wunderground v.1.15,2013-01-26 15:45:00,
2013-01-26 09:50:00,16.4,8.6,30.52,East,86,0.0,0.0,71,0.00,,,0.00,Wunderground v.1.15,2013-01-26 15:50:00,
2013-01-26 09:55:00,16.5,8.1,30.52,NNW,346,1.0,1.0,69,0.00,,,0.00,Wunderground v.1.15,2013-01-26 15:55:00,
2013-01-26 10:00:00,17.1,9.0,30.53,NE,51,1.0,1.0,70,0.00,,,0.00,Wunderground v.1.15,2013-01-26 16:00:00,
2013-01-26 10:05:00,17.4,9.0,30.52,ENE,65,0.0,1.0,69,0.00,,,0.00,Wunderground v.1.15,2013-01-26 16:05:00,
2013-01-26 10:15:00,18.1,9.0,30.53,NNW,346,0.0,0.0,67,0.00,,,0.00,Wunderground v.1.15,2013-01-26 16:15:00,
2013-01-26 10:20:00,18.5,8.7,30.53,ESE,110,0.0,2.0,65,0.00,,,0.00,Wunderground v.1.15,2013-01-26 16:20:00,
2013-01-26 10:25:00,18.7,8.9,30.52,NE,49,1.0,2.0,65,0.00,,,0.00,Wunderground v.1.15,2013-01-26 16:25:00,
2013-01-26 10:35:00,19.7,9.5,30.53,NE,46,0.0,0.0,64,0.00,,,0.00,Wunderground v.1.15,2013-01-26 16:35:00,
2013-01-26 10:40:00,19.9,9.0,30.53,NE,44,1.0,1.0,62,0.00,,,0.00,Wunderground v.1.15,2013-01-26 16:40:00,
2013-01-26 10:45:00,20.4,9.8,30.54,NE,44,0.0,1.0,63,0.00,,,0.00,Wunderground v.1.15,2013-01-26 16:45:00,
2013-01-26 10:55:00,22.7,10.9,30.53,East,92,0.0,1.0,60,0.00,,,0.00,Wunderground v.1.15,2013-01-26 16:55:00,
2013-01-26 11:00:00,22.6,9.2,30.53,East,92,0.0,0.0,56,0.00,,,0.00,Wunderground v.1.15,2013-01-26 17:00:00,
2013-01-26 11:05:00,21.9,9.0,30.52,East,86,1.0,1.0,57,0.00,,,0.00,Wunderground v.1.15,2013-01-26 17:05:00,
2013-01-26 11:15:00,21.7,8.8,30.52,SSE,168,1.0,4.0,57,0.00,,,0.00,Wunderground v.1.15,2013-01-26 17:15:00,
2013-01-26 11:20:00,21.1,8.2,30.52,SSE,168,2.0,2.0,57,0.00,,,0.00,Wunderground v.1.15,2013-01-26 17:20:00,
2013-01-26 11:30:00,21.6,8.7,30.52,ESE,103,0.0,0.0,57,0.00,,,0.00,Wunderground v.1.15,2013-01-26 17:30:00,
2013-01-26 11:35:00,22.0,9.1,30.52,ESE,103,0.0,0.0,57,0.00,,,0.00,Wunderground v.1.15,2013-01-26 17:35:00,
2013-01-26 11:40:00,23.3,9.9,30.52,South,178,0.0,0.0,56,0.00,,,0.00,Wunderground v.1.15,2013-01-26 17:40:00,
2013-01-26 11:50:00,24.6,9.5,30.52,NW,323,1.0,1.0,52,0.00,,,0.00,Wunderground v.1.15,2013-01-26 17:50:00,
2013-01-26 11:55:00,24.3,9.6,30.52,NW,321,0.0,1.0,53,0.00,,,0.00,Wunderground v.1.15,2013-01-26 17:55:00,
2013-01-26 12:00:00,24.9,10.2,30.52,NW,311,0.0,0.0,53,0.00,,,0.00,Wunderground v.1.15,2013-01-26 18:00:00,
2013-01-26 12:05:00,25.4,9.3,30.52,SW,222,1.0,1.0,50,0.00,,,0.00,Wunderground v.1.15,2013-01-26 18:05:00,
2013-01-26 12:15:00,25.4,10.2,30.52,SW,227,0.0,1.0,52,0.00,,,0.00,Wunderground v.1.15,2013-01-26 18:15:00,
2013-01-26 12:20:00,25.4,9.8,30.52,NNW,333,1.0,1.0,51,0.00,,,0.00,Wunderground v.1.15,2013-01-26 18:20:00,
2013-01-26 12:25:00,25.5,10.3,30.51,NW,326,1.0,1.0,52,0.00,,,0.00,Wunderground v.1.15,2013-01-26 18:25:00,
2013-01-26 12:30:00,25.6,10.4,30.51,NW,326,0.0,0.0,52,0.00,,,0.00,Wunderground v.1.15,2013-01-26 18:30:00,
2013-01-26 12:35:00,26.2,10.5,30.51,WNW,300,1.0,3.0,51,0.00,,,0.00,Wunderground v.1.15,2013-01-26 18:35:00,
2013-01-26 12:40:00,26.6,10.4,30.51,WNW,299,1.0,1.0,50,0.00,,,0.00,Wunderground v.1.15,2013-01-26 18:40:00,
2013-01-26 12:50:00,24.7,8.7,30.51,SSE,154,2.0,2.0,50,0.00,,,0.00,Wunderground v.1.15,2013-01-26 18:50:00,
2013-01-26 12:55:00,24.1,8.1,30.51,South,191,2.0,2.0,50,0.00,,,0.00,Wunderground v.1.15,2013-01-26 18:55:00,
2013-01-26 13:00:00,23.9,8.8,30.50,SSW,209,1.0,1.0,52,0.00,,,0.00,Wunderground v.1.15,2013-01-26 19:00:00,
2013-01-26 13:05:00,25.0,9.8,30.49,West,265,1.0,1.0,52,0.00,,,0.00,Wunderground v.1.15,2013-01-26 19:05:00,
2013-01-26 13:15:00,26.5,10.3,30.49,West,267,0.0,1.0,50,0.00,,,0.00,Wunderground v.1.15,2013-01-26 19:15:00,
2013-01-26 13:20:00,27.1,10.9,30.49,WNW,287,0.0,0.0,50,0.00,,,0.00,Wunderground v.1.15,2013-01-26 19:20:00,
2013-01-26 13:30:00,26.1,10.0,30.48,NE,45,1.0,1.0,50,0.00,,,0.00,Wunderground v.1.15,2013-01-26 19:30:00,
2013-01-26 13:35:00,25.8,10.6,30.47,SE,141,1.0,1.0,52,0.00,,,0.00,Wunderground v.1.15,2013-01-26 19:35:00,
2013-01-26 13:40:00,25.8,10.1,30.47,SE,137,1.0,1.0,51,0.00,,,0.00,Wunderground v.1.15,2013-01-26 19:40:00,
2013-01-26 13:45:00,26.0,10.3,30.47,South,175,2.0,2.0,51,0.00,,,0.00,Wunderground v.1.15,2013-01-26 19:45:00,
2013-01-26 13:55:00,26.5,10.8,30.48,East,98,1.0,2.0,51,0.00,,,0.00,Wunderground v.1.15,2013-01-26 19:55:00,
2013-01-26 14:00:00,27.4,11.2,30.48,WSW,248,1.0,1.0,50,0.00,,,0.00,Wunderground v.1.15,2013-01-26 20:00:00,
2013-01-26 14:05:00,27.4,10.7,30.48,SE,137,1.0,5.0,49,0.00,,,0.00,Wunderground v.1.15,2013-01-26 20:05:00,
2013-01-26 14:15:00,26.4,10.7,30.48,SE,145,2.0,2.0,51,0.00,,,0.00,Wunderground v.1.15,2013-01-26 20:15:00,
2013-01-26 14:20:00,26.8,10.6,30.48,SE,144,0.0,0.0,50,0.00,,,0.00,Wunderground v.1.15,2013-01-26 20:20:00,
2013-01-26 14:25:00,27.4,11.2,30.48,SE,145,0.0,0.0,50,0.00,,,0.00,Wunderground v.1.15,2013-01-26 20:25:00,
2013-01-26 14:35:00,26.2,10.1,30.48,South,173,2.0,6.0,50,0.00,,,0.00,Wunderground v.1.15,2013-01-26 20:35:00,
2013-01-26 14:40:00,26.7,10.5,30.48,South,172,1.0,1.0,50,0.00,,,0.00,Wunderground v.1.15,2013-01-26 20:40:00,
2013-01-26 14:45:00,27.0,10.4,30.48,South,173,0.0,1.0,49,0.00,,,0.00,Wunderground v.1.15,2013-01-26 20:45:00,
2013-01-26 14:50:00,26.1,10.0,30.48,South,169,1.0,1.0,50,0.00,,,0.00,Wunderground v.1.15,2013-01-26 20:50:00,
2013-01-26 15:00:00,25.6,10.0,30.47,South,169,0.0,1.0,51,0.00,,,0.00,Wunderground v.1.15,2013-01-26 21:00:00,
2013-01-26 15:05:00,25.6,10.8,30.48,South,169,0.0,1.0,53,0.00,,,0.00,Wunderground v.1.15,2013-01-26 21:05:00,
2013-01-26 15:15:00,25.4,11.0,30.48,ESE,115,1.0,1.0,54,0.00,,,0.00,Wunderground v.1.15,2013-01-26 21:15:00,
2013-01-26 15:20:00,25.5,11.1,30.48,ESE,116,0.0,0.0,54,0.00,,,0.00,Wunderground v.1.15,2013-01-26 21:20:00,
2013-01-26 15:25:00,25.5,10.7,30.48,ESE,115,0.0,0.0,53,0.00,,,0.00,Wunderground v.1.15,2013-01-26 21:25:00,
2013-01-26 15:30:00,25.5,11.1,30.47,SE,137,1.0,1.0,54,0.00,,,0.00,Wunderground v.1.15,2013-01-26 21:30:00,
2013-01-26 15:35:00,25.5,11.1,30.48,SSE,159,1.0,1.0,54,0.00,,,0.00,Wunderground v.1.15,2013-01-26 21:35:00,
2013-01-26 15:45:00,25.7,11.3,30.48,SSE,165,1.0,1.0,54,0.00,,,0.00,Wunderground v.1.15,2013-01-26 21:45:00,
2013-01-26 15:50:00,25.8,11.0,30.48,SSE,161,1.0,1.0,53,0.00,,,0.00,Wunderground v.1.15,2013-01-26 21:50:00,
2013-01-26 15:55:00,25.8,11.4,30.48,SSE,149,2.0,2.0,54,0.00,,,0.00,Wunderground v.1.15,2013-01-26 21:55:00,
2013-01-26 16:00:00,25.8,11.4,30.47,SE,142,2.0,2.0,54,0.00,,,0.00,Wunderground v.1.15,2013-01-26 22:00:00,
2013-01-26 16:05:00,26.1,11.7,30.47,SSE,160,1.0,5.0,54,0.00,,,0.00,Wunderground v.1.15,2013-01-26 22:05:00,
2013-01-26 16:15:00,26.0,11.2,30.47,SSE,167,2.0,2.0,53,0.00,,,0.00,Wunderground v.1.15,2013-01-26 22:15:00,
2013-01-26 16:25:00,25.8,11.4,30.47,SE,139,1.0,2.0,54,0.00,,,0.00,Wunderground v.1.15,2013-01-26 22:25:00,
2013-01-26 16:30:00,25.6,11.7,30.46,East,97,0.0,1.0,55,0.00,,,0.00,Wunderground v.1.15,2013-01-26 22:30:00,
2013-01-26 16:35:00,25.6,12.1,30.46,East,101,0.0,1.0,56,0.00,,,0.00,Wunderground v.1.15,2013-01-26 22:35:00,
2013-01-26 16:40:00,25.6,12.1,30.45,ESE,114,1.0,1.0,56,0.00,,,0.00,Wunderground v.1.15,2013-01-26 22:40:00,
2013-01-26 16:50:00,25.4,11.9,30.46,SSE,148,1.0,1.0,56,0.00,,,0.00,Wunderground v.1.15,2013-01-26 22:50:00,
2013-01-26 16:55:00,25.4,12.3,30.47,SSE,148,1.0,1.0,57,0.00,,,0.00,Wunderground v.1.15,2013-01-26 22:55:00,
2013-01-26 17:00:00,25.4,12.3,30.47,SSE,148,1.0,1.0,57,0.00,,,0.00,Wunderground v.1.15,2013-01-26 23:00:00,
2013-01-26 17:05:00,25.4,12.3,30.47,SSE,150,1.0,2.0,57,0.00,,,0.00,Wunderground v.1.15,2013-01-26 23:05:00,
2013-01-26 17:15:00,25.2,12.1,30.47,SSE,148,3.0,4.0,57,0.00,,,0.00,Wunderground v.1.15,2013-01-26 23:15:00,
2013-01-26 17:20:00,25.2,12.5,30.47,SSE,148,3.0,4.0,58,0.00,,,0.00,Wunderground v.1.15,2013-01-26 23:20:00,
2013-01-26 17:25:00,25.2,12.5,30.47,SSE,148,2.0,4.0,58,0.00,,,0.00,Wunderground v.1.15,2013-01-26 23:25:00,
2013-01-26 17:35:00,25.1,12.8,30.47,SSE,157,2.0,5.0,59,0.00,,,0.00,Wunderground v.1.15,2013-01-26 23:35:00,
2013-01-26 17:40:00,25.0,12.7,30.47,SSE,159,4.0,5.0,59,0.00,,,0.00,Wunderground v.1.15,2013-01-26 23:40:00,
2013-01-26 17:45:00,24.9,12.6,30.46,SE,142,5.0,8.0,59,0.00,,,0.00,Wunderground v.1.15,2013-01-26 23:45:00,
2013-01-26 17:50:00,24.8,12.5,30.45,SE,146,6.0,6.0,59,0.00,,,0.00,Wunderground v.1.15,2013-01-26 23:50:00,
2013-01-26 17:55:00,24.8,12.5,30.46,SSE,148,5.0,6.0,59,0.00,,,0.00,Wunderground v.1.15,2013-01-26 23:55:00,
2013-01-26 18:05:00,24.6,13.1,30.46,SSE,152,5.0,6.0,61,0.00,,,0.00,Wunderground v.1.15,2013-01-27 00:05:00,
2013-01-26 18:15:00,24.4,12.9,30.46,SE,145,5.0,5.0,61,0.00,,,0.00,Wunderground v.1.15,2013-01-27 00:15:00,
2013-01-26 18:25:00,24.3,12.8,30.47,SSE,155,5.0,9.0,61,0.00,,,0.00,Wunderground v.1.15,2013-01-27 00:25:00,
2013-01-26 18:30:00,24.3,12.8,30.48,SSE,148,4.0,4.0,61,0.00,,,0.00,Wunderground v.1.15,2013-01-27 00:30:00,
2013-01-26 18:40:00,24.2,12.3,30.48,South,171,3.0,3.0,60,0.00,,,0.00,Wunderground v.1.15,2013-01-27 00:40:00,
2013-01-26 18:45:00,24.2,13.0,30.48,SSE,159,3.0,3.0,62,0.00,,,0.00,Wunderground v.1.15,2013-01-27 00:45:00,
2013-01-26 18:55:00,24.2,12.7,30.48,SSE,156,3.0,3.0,61,0.00,,,0.00,Wunderground v.1.15,2013-01-27 00:55:00,
2013-01-26 19:00:00,24.2,13.0,30.48,SSE,158,3.0,4.0,62,0.00,,,0.00,Wunderground v.1.15,2013-01-27 01:00:00,
2013-01-26 19:05:00,24.2,13.0,30.48,SSE,165,2.0,4.0,62,0.00,,,0.00,Wunderground v.1.15,2013-01-27 01:05:00,
2013-01-26 19:15:00,24.1,13.3,30.48,SSE,148,3.0,5.0,63,0.00,,,0.00,Wunderground v.1.15,2013-01-27 01:15:00,
2013-01-26 19:20:00,24.1,13.3,30.48,SE,145,4.0,6.0,63,0.00,,,0.00,Wunderground v.1.15,2013-01-27 01:20:00,
2013-01-26 19:25:00,24.1,13.3,30.48,SE,133,5.0,6.0,63,0.00,,,0.00,Wunderground v.1.15,2013-01-27 01:25:00,
2013-01-26 19:35:00,24.1,14.0,30.47,SSE,160,4.0,6.0,65,0.00,,,0.00,Wunderground v.1.15,2013-01-27 01:35:00,
2013-01-26 19:40:00,24.0,14.3,30.47,SE,134,2.0,5.0,66,0.00,,,0.00,Wunderground v.1.15,2013-01-27 01:40:00,
2013-01-26 19:50:00,23.8,14.4,30.47,SSE,152,3.0,4.0,67,0.00,,,0.00,Wunderground v.1.15,2013-01-27 01:50:00,
2013-01-26 19:55:00,23.7,14.3,30.47,SE,141,3.0,4.0,67,0.00,,,0.00,Wunderground v.1.15,2013-01-27 01:55:00,
2013-01-26 20:00:00,23.6,14.2,30.47,SE,136,3.0,5.0,67,0.00,,,0.00,Wunderground v.1.15,2013-01-27 02:00:00,
2013-01-26 20:05:00,23.6,14.6,30.46,SSE,147,2.0,5.0,68,0.00,,,0.00,Wunderground v.1.15,2013-01-27 02:05:00,
2013-01-26 20:15:00,23.5,14.5,30.46,SE,141,3.0,5.0,68,0.00,,,0.00,Wunderground v.1.15,2013-01-27 02:15:00,
2013-01-26 20:20:00,23.4,14.7,30.47,SSE,164,3.0,7.0,69,0.00,,,0.00,Wunderground v.1.15,2013-01-27 02:20:00,
2013-01-26 20:30:00,23.4,14.7,30.47,SSE,157,3.0,3.0,69,0.00,,,0.00,Wunderground v.1.15,2013-01-27 02:30:00,
2013-01-26 20:35:00,23.4,14.7,30.47,SE,133,2.0,5.0,69,0.00,,,0.00,Wunderground v.1.15,2013-01-27 02:35:00,
2013-01-26 20:40:00,23.5,15.1,30.47,SE,143,3.0,3.0,70,0.00,,,0.00,Wunderground v.1.15,2013-01-27 02:40:00,
2013-01-26 20:45:00,23.5,15.1,30.47,SSE,150,3.0,3.0,70,0.00,,,0.00,Wunderground v.1.15,2013-01-27 02:45:00,
2013-01-26 20:55:00,23.5,15.1,30.46,SSE,156,4.0,6.0,70,0.00,,,0.00,Wunderground v.1.15,2013-01-27 02:55:00,
2013-01-26 21:00:00,23.5,15.1,30.46,SE,136,5.0,9.0,70,0.00,,,0.00,Wunderground v.1.15,2013-01-27 03:00:00,
2013-01-26 21:05:00,23.5,15.1,30.45,SSE,157,4.0,9.0,70,0.00,,,0.00,Wunderground v.1.15,2013-01-27 03:05:00,
2013-01-26 21:15:00,23.5,15.5,30.45,SE,146,4.0,4.0,71,0.00,,,0.00,Wunderground v.1.15,2013-01-27 03:15:00,
2013-01-26 21:25:00,23.6,15.6,30.45,SE,144,5.0,5.0,71,0.00,,,0.00,Wunderground v.1.15,2013-01-27 03:25:00,
2013-01-26 21:30:00,23.6,15.6,30.46,SSE,148,4.0,5.0,71,0.00,,,0.00,Wunderground v.1.15,2013-01-27 03:30:00,
2013-01-26 21:35:00,23.6,15.6,30.46,SE,146,4.0,5.0,71,0.00,,,0.00,Wunderground v.1.15,2013-01-27 03:35:00,
2013-01-26 21:45:00,23.7,15.3,30.46,SSE,155,3.0,4.0,70,0.00,,,0.00,Wunderground v.1.15,2013-01-27 03:45:00,
2013-01-26 21:55:00,23.8,15.4,30.46,SE,132,1.0,2.0,70,0.00,,,0.00,Wunderground v.1.15,2013-01-27 03:55:00,
2013-01-26 22:00:00,23.7,15.3,30.46,SE,136,1.0,4.0,70,0.00,,,0.00,Wunderground v.1.15,2013-01-27 04:00:00,
2013-01-26 22:05:00,23.7,15.7,30.47,ESE,107,2.0,4.0,71,0.00,,,0.00,Wunderground v.1.15,2013-01-27 04:05:00,
2013-01-26 22:15:00,23.7,15.3,30.47,SE,146,2.0,2.0,70,0.00,,,0.00,Wunderground v.1.15,2013-01-27 04:15:00,
2013-01-26 22:20:00,23.7,15.3,30.47,SE,141,3.0,6.0,70,0.00,,,0.00,Wunderground v.1.15,2013-01-27 04:20:00,
2013-01-26 22:30:00,23.7,15.3,30.46,SSE,153,5.0,5.0,70,0.00,,,0.00,Wunderground v.1.15,2013-01-27 04:30:00,
2013-01-26 22:35:00,23.6,15.6,30.46,SE,136,5.0,6.0,71,0.00,,,0.00,Wunderground v.1.15,2013-01-27 04:35:00,
2013-01-26 22:40:00,23.6,15.6,30.46,SE,132,5.0,5.0,71,0.00,,,0.00,Wunderground v.1.15,2013-01-27 04:40:00,
2013-01-26 22:45:00,23.5,15.5,30.46,SE,142,5.0,5.0,71,0.00,,,0.00,Wunderground v.1.15,2013-01-27 04:45:00,
2013-01-26 22:55:00,23.3,15.3,30.46,SE,134,5.0,5.0,71,0.00,,,0.00,Wunderground v.1.15,2013-01-27 04:55:00,
2013-01-26 23:00:00,23.2,15.2,30.46,SE,144,5.0,5.0,71,0.00,,,0.00,Wunderground v.1.15,2013-01-27 05:00:00,
2013-01-26 23:05:00,23.1,15.1,30.47,SSE,148,4.0,5.0,71,0.00,,,0.00,Wunderground v.1.15,2013-01-27 05:05:00,
2013-01-26 23:15:00,23.0,15.3,30.47,SSE,148,3.0,5.0,72,0.00,,,0.00,Wunderground v.1.15,2013-01-27 05:15:00,
2013-01-26 23:20:00,23.0,15.3,30.47,SE,125,4.0,6.0,72,0.00,,,0.00,Wunderground v.1.15,2013-01-27 05:20:00,
2013-01-26 23:25:00,22.9,15.2,30.46,SSE,152,4.0,6.0,72,0.00,,,0.00,Wunderground v.1.15,2013-01-27 05:25:00,
2013-01-26 23:35:00,22.7,15.0,30.46,SSE,151,5.0,6.0,72,0.00,,,0.00,Wunderground v.1.15,2013-01-27 05:35:00,
2013-01-26 23:40:00,22.7,15.3,30.45,SE,140,6.0,6.0,73,0.00,,,0.00,Wunderground v.1.15,2013-01-27 05:40:00,
2013-01-26 23:45:00,22.7,15.3,30.45,SSE,152,6.0,6.0,73,0.00,,,0.00,Wunderground v.1.15,2013-01-27 05:45:00,
2013-01-26 23:50:00,22.7,15.3,30.45,SE,138,6.0,6.0,73,0.00,,,0.00,Wunderground v.1.15,2013-01-27 05:50:00,
2013-01-26 23:55:00,22.7,15.3,30.44,SSE,157,6.0,6.0,73,0.00,,,0.00,Wunderground v.1.15,2013-01-27 05:55:00,